Tracy, MN

1:56 PM CST on February 27, 2017 (GMT -0600)
Tracy

Weather History for KTKC - April, 2013

Change the Weather History Date:

Friday, April 26, 2013

  Actual Average (KMML) Record (KMML)
Temperature  
Mean Temperature 53 °F -  
Max Temperature 64 °F 65 °F 94 °F (1962)
Min Temperature 42 °F 40 °F 25 °F (1950)
Degree Days  
Heating Degree Days 12    
Growing Degree Days 3 (Base 50)    
Moisture  
Dew Point 37 °F    
Average Humidity 58    
Maximum Humidity 72    
Minimum Humidity 31    
Precipitation  
Precipitation 0.00 in - - ()
Sea Level Pressure  
Sea Level Pressure 30.03 in    
Wind  
Wind Speed 13 mph (WSW)    
Max Wind Speed 22 mph    
Max Gust Speed 29 mph    
Visibility 10 miles    
Events      
Averages and records for this station are not official NWS values.
T = Trace of Precipitation, MM = Missing Value Source: NWS Daily Summary

Daily Weather History Graph

Daily Weather History Graph

Search for Another Location

Airport or City:

Trip Planner

Search our weather history database for the weather conditions in past years. The results will help you decide how hot, cold, wet, or windy it might be!

Date:

Astronomy

Apr. 26, 2013 Rise Set
Actual Time 6:20 AM CDT 8:20 PM CDT
Civil Twilight 5:49 AM CDT 8:52 PM CDT
Nautical Twilight 5:10 AM CDT 9:30 PM CDT
Astronomical Twilight 4:28 AM CDT 10:12 PM CDT
Moon 9:47 PM CDT (4/26) 6:46 AM CDT (4/26)
Length of Visible Light 15h 02m
Length of Day
14h 00m
Full, 99% of the Moon is Illuminated
Apr 26
Full
May 2
Last Quarter
May 9
New
May 17
First Quarter
May 24
Full

Hourly Weather History & Observations

Time (CDT) Temp. Windchill Dew Point Humidity Pressure Visibility Wind Dir Wind Speed Gust Speed Precip Events Conditions
12:18 AM 47.5 °F - 34.7 °F 61% 29.92 in 10.0 mi South 16.1 mph 20.7 mph N/A   Scattered Clouds
12:38 AM 46.9 °F - 35.1 °F 63% 29.91 in 10.0 mi South 15.0 mph 23.0 mph N/A   Scattered Clouds
12:58 AM 48.2 °F - 34.7 °F 60% 29.90 in 10.0 mi South 16.1 mph 23.0 mph N/A   Scattered Clouds
1:18 AM 48.0 °F - 34.9 °F 60% 29.91 in 10.0 mi SSW 19.6 mph 25.3 mph N/A   Clear
1:37 AM 47.3 °F - 34.9 °F 62% 29.91 in 10.0 mi SSW 19.6 mph 27.6 mph N/A   Clear
2:18 AM 46.4 °F 39.0 °F 35.1 °F 65% 29.90 in 10.0 mi SSW 19.6 mph 26.5 mph N/A   Clear
2:37 AM 46.4 °F 39.0 °F 35.1 °F 65% 29.90 in 10.0 mi SSW 19.6 mph 26.5 mph N/A   Clear
2:57 AM 46.4 °F 39.5 °F 35.1 °F 65% 29.90 in 10.0 mi SSW 17.3 mph 24.2 mph N/A   Clear
3:17 AM 46.8 °F - 35.6 °F 65% 29.90 in 10.0 mi SSW 18.4 mph 26.5 mph N/A   Scattered Clouds
3:38 AM 45.5 °F 37.8 °F 35.2 °F 67% 29.90 in 10.0 mi SW 19.6 mph 26.5 mph N/A   Scattered Clouds
3:57 AM 43.3 °F 35.0 °F 34.7 °F 72% 29.90 in 10.0 mi SSW 19.6 mph 27.6 mph N/A   Clear
4:18 AM 44.1 °F 35.4 °F 34.3 °F 69% 29.90 in 10.0 mi SW 21.9 mph 27.6 mph N/A   Clear
4:38 AM 44.1 °F 35.4 °F 34.2 °F 68% 29.91 in 10.0 mi SW 21.9 mph 27.6 mph N/A   Clear
4:58 AM 44.1 °F 35.4 °F 34.0 °F 68% 29.90 in 10.0 mi SW 21.9 mph 28.8 mph N/A   Clear
5:18 AM 44.8 °F 36.4 °F 34.2 °F 66% 29.90 in 10.0 mi SSW 21.9 mph 27.6 mph N/A   Clear
5:38 AM 43.2 °F 34.7 °F 33.8 °F 70% 29.91 in 10.0 mi SW 19.6 mph 26.5 mph N/A   Clear
5:57 AM 42.8 °F 34.0 °F 33.6 °F 70% 29.91 in 10.0 mi SSW 20.7 mph - N/A   Clear
6:17 AM 42.8 °F 34.0 °F 33.4 °F 70% 29.91 in 10.0 mi SW 20.7 mph - N/A   Clear
6:38 AM 42.6 °F 34.0 °F 33.3 °F 69% 29.92 in 10.0 mi SW 19.6 mph - N/A   Clear
6:57 AM 43.2 °F 34.7 °F 33.3 °F 68% 29.92 in 10.0 mi SW 19.6 mph 24.2 mph N/A   Clear
7:18 AM 43.3 °F 35.2 °F 33.4 °F 68% 29.93 in 10.0 mi SW 18.4 mph 24.2 mph N/A   Clear
7:38 AM 43.7 °F 35.7 °F 33.8 °F 68% 29.94 in 10.0 mi SW 18.4 mph 25.3 mph N/A   Clear
7:57 AM 43.7 °F 36.0 °F 34.0 °F 69% 29.95 in 10.0 mi SW 17.3 mph - N/A   Clear
8:17 AM 43.7 °F 36.6 °F 34.2 °F 69% 29.96 in 10.0 mi WSW 15.0 mph - N/A   Clear
8:38 AM 44.1 °F 37.4 °F 34.3 °F 69% 29.96 in 10.0 mi WSW 13.8 mph - N/A   Clear
8:58 AM 44.6 °F 38.4 °F 34.5 °F 68% 29.97 in 10.0 mi WSW 12.7 mph - N/A   Clear
9:17 AM 46.2 °F 40.5 °F 34.9 °F 65% 29.98 in 10.0 mi WSW 12.7 mph - N/A   Clear
9:37 AM 47.1 °F - 35.4 °F 64% 29.99 in 10.0 mi WSW 11.5 mph - N/A   Clear
9:58 AM 48.9 °F - 36.7 °F 63% 30.00 in 10.0 mi West 6.9 mph - N/A   Clear
10:18 AM 50.0 °F - 36.7 °F 60% 30.01 in 10.0 mi WNW 10.4 mph - N/A   Clear
10:37 AM 50.2 °F - 37.9 °F 63% 30.02 in 10.0 mi NW 10.4 mph - N/A   Clear
10:58 AM 52.7 °F - 39.7 °F 61% 30.03 in 10.0 mi NW 11.5 mph - N/A   Clear
11:18 AM 53.8 °F - 41.0 °F 62% 30.05 in 10.0 mi Calm Calm - N/A   Clear
11:37 AM 54.7 °F - 41.7 °F 62% 30.06 in 10.0 mi Calm Calm - N/A   Clear
11:57 AM 56.3 °F - 42.1 °F 59% 30.07 in 10.0 mi Calm Calm - N/A   Clear
12:17 PM 57.6 °F - 43.5 °F 59% 30.07 in 10.0 mi Calm Calm - N/A   Clear
12:38 PM 58.1 °F - 43.9 °F 59% 30.08 in 10.0 mi Calm Calm - N/A   Clear
12:58 PM 59.0 °F - 45.1 °F 60% 30.08 in 10.0 mi Calm Calm - N/A   Clear
1:18 PM 60.4 °F - 44.1 °F 55% 30.08 in 10.0 mi NW 8.1 mph - N/A   Clear
1:37 PM 60.8 °F - 45.1 °F 56% 30.08 in 10.0 mi NW 4.6 mph - N/A   Clear
1:57 PM 61.7 °F - 43.7 °F 52% 30.07 in 10.0 mi Calm Calm - N/A   Clear
2:18 PM 62.2 °F - 43.3 °F 50% 30.08 in 10.0 mi Calm Calm - N/A   Clear
2:38 PM 62.6 °F - 45.7 °F 54% 30.08 in 10.0 mi Calm Calm - N/A   Clear
2:57 PM 63.7 °F - 41.5 °F 44% 30.08 in 10.0 mi WNW 8.1 mph - N/A   Clear
3:18 PM 63.7 °F - 39.6 °F 41% 30.09 in 10.0 mi NW 10.4 mph - N/A   Clear
3:38 PM 63.7 °F - 38.1 °F 39% 30.09 in 10.0 mi Calm Calm - N/A   Clear
3:57 PM 63.9 °F - 38.1 °F 39% 30.09 in 10.0 mi NW 10.4 mph 16.1 mph N/A   Clear
4:18 PM 63.9 °F - 38.3 °F 39% 30.09 in 10.0 mi NW 10.4 mph 16.1 mph N/A   Clear
4:38 PM 64.4 °F - 34.5 °F 33% 30.09 in 10.0 mi NNW 11.5 mph - N/A   Clear
4:57 PM 64.0 °F - 32.7 °F 31% 30.10 in 10.0 mi North 12.7 mph 17.3 mph N/A   Clear
5:18 PM 64.4 °F - 33.8 °F 32% 30.10 in 10.0 mi NNW 12.7 mph 17.3 mph N/A   Clear
5:38 PM 64.4 °F - 34.5 °F 33% 30.10 in 10.0 mi North 6.9 mph - N/A   Clear
5:58 PM 63.9 °F - 33.4 °F 32% 30.11 in 10.0 mi North 11.5 mph - N/A   Clear
6:18 PM 63.9 °F - 34.5 °F 34% 30.11 in 10.0 mi Calm Calm - N/A   Clear
6:38 PM 63.3 °F - 35.2 °F 35% 30.11 in 10.0 mi North 4.6 mph - N/A   Clear
6:57 PM 62.6 °F - 34.7 °F 35% 30.12 in 10.0 mi North 5.8 mph - N/A   Clear
7:17 PM 61.7 °F - 36.5 °F 39% 30.12 in 10.0 mi Calm Calm - N/A   Clear
7:38 PM 60.1 °F - 38.3 °F 44% 30.12 in 10.0 mi Calm Calm - N/A   Clear
7:57 PM 58.3 °F - 38.7 °F 48% 30.12 in 10.0 mi Calm Calm - N/A   Clear
8:18 PM 53.2 °F - 42.1 °F 66% 30.13 in 10.0 mi Calm Calm - N/A   Clear
8:38 PM 51.6 °F - 38.7 °F 61% 30.13 in 10.0 mi Calm Calm - N/A   Clear
8:58 PM 52.0 °F - 37.8 °F 58% 30.14 in 10.0 mi Calm Calm - N/A   Clear
9:17 PM 50.9 °F - 36.9 °F 59% 30.14 in 10.0 mi Calm Calm - N/A   Clear
9:38 PM 49.5 °F - 37.4 °F 63% 30.15 in 10.0 mi Calm Calm - N/A   Clear
9:58 PM 49.1 °F - 38.5 °F 67% 30.15 in 10.0 mi Calm Calm - N/A   Clear
10:18 PM 48.9 °F - 38.1 °F 66% 30.15 in 10.0 mi Calm Calm - N/A   Clear
10:38 PM 49.3 °F - 37.4 °F 64% 30.16 in 10.0 mi Calm Calm - N/A   Clear
10:58 PM 47.8 °F - 36.5 °F 65% 30.16 in 10.0 mi Calm Calm - N/A   Clear
11:17 PM 47.8 °F - 35.8 °F 63% 30.16 in 10.0 mi Calm Calm - N/A   Clear
11:37 PM 48.0 °F - 35.6 °F 62% 30.16 in 10.0 mi Calm Calm - N/A   Clear
11:58 PM 45.0 °F - 35.2 °F 69% 30.15 in 10.0 mi Calm Calm - N/A   Clear